SL-08 RB Rocket - Orbit

View from above orbital plane
View from above orbital plane
View from above satellite
View from above satellite

Ground track
Ground track

The orbit data is extracted from the following two-line orbital elements,

1 26387U 00033D   13144.84530733  .00000594  00000-0  11514-3 0  2095
2 26387 098.1535 210.7212 0026894 002.9290 062.6478 14.66722041690152
Epoch (UTC): 24 May 2013 20:17:14
Eccentricity: 0.0026894
inclination: 98.1535°
perigee height: 652 km
apogee height: 690 km
right ascension of ascending node: 210.7212°
argument of perigee: 2.9290°
revolutions per day: 14.66722041
mean anomaly at epoch: 62.6478°
orbit number at epoch: 69015

The dashed part of the orbit path shows where the satellite is in the earth's shadow,  

Developed and maintained by Chris Peat, Heavens-Above GmbH. Please read the updated FAQ before sending e-mail. Imprint. DLR